Total_Precipitation_Accumulation
2.37 2.57 2.51 2.40 2.29 2.37 2.31 2.17 1.99 2.02 1.95 1.77 1.62 1.64 1.71 1.74 1.76 1.87 1.92 1.83 1.88 2.15 2.62 2.96 3.06 2.96 2.91 2.90 2.84 2.72 2.58 2.48 2.42 2.27 2.13 1.98 1.87 1.76 1.68 1.68 1.70 1.60 1.57
2.87 3.03 2.99 2.81 2.57 2.57 2.55 2.46 2.38 2.47 2.40 2.33 2.14 2.00 1.90 1.98 1.95 1.99 2.16 2.24 2.10 2.10 2.55 3.08 3.39 3.40 3.31 3.27 3.06 2.81 2.73 2.68 2.64 2.52 2.40 2.17 1.99 1.96 1.88 1.81 1.79 1.72 1.63
3.39 3.47 3.46 3.16 2.91 2.89 3.05 3.02 2.91 2.87 2.61 2.51 2.42 2.32 2.18 2.07 2.06 2.11 2.29 2.56 2.46 2.47 2.65 2.79 2.98 3.15 3.32 3.52 3.55 3.32 3.07 2.90 2.82 2.73 2.63 2.49 2.29 2.11 2.03 1.97 1.95 1.88 1.77
3.50 3.59 3.60 3.44 3.29 3.21 3.47 3.62 3.52 3.43 3.25 3.13 2.94 2.68 2.40 2.32 2.31 2.44 2.54 2.70 2.90 2.84 2.88 2.76 2.66 2.81 3.14 3.41 3.59 3.65 3.47 3.17 2.97 2.92 2.86 2.76 2.54 2.38 2.23 2.13 2.11 2.03 1.89
3.87 3.91 3.82 3.80 3.81 3.87 3.85 3.65 3.76 3.63 3.65 3.54 3.09 2.85 2.50 2.40 2.50 2.48 2.59 2.64 2.82 2.82 2.82 2.68 2.63 2.67 2.93 3.32 3.47 3.69 3.72 3.60 3.39 3.21 3.11 3.03 2.87 2.65 2.45 2.32 2.21 2.09 1.95
4.27 4.49 4.45 4.37 4.34 4.30 4.08 4.02 4.03 3.85 3.70 3.56 3.11 2.83 2.56 2.39 2.37 2.43 2.41 2.39 2.40 2.40 2.40 2.48 2.75 2.64 2.76 2.96 3.04 3.26 3.56 3.75 3.62 3.42 3.28 3.23 3.06 2.78 2.50 2.37 2.30 2.23 2.14
5.03 5.09 4.89 4.68 4.54 4.52 4.43 4.40 4.22 4.01 3.75 3.65 3.57 3.15 2.60 2.30 2.28 2.24 2.23 2.23 2.20 2.25 2.33 2.39 2.43 2.43 2.44 2.56 2.58 2.75 3.04 3.41 3.55 3.55 3.53 3.41 3.26 3.05 2.75 2.52 2.43 2.39 2.33
5.21 5.14 5.17 5.09 4.90 4.72 4.54 4.37 4.28 4.10 3.75 3.67 3.67 3.52 3.00 2.55 2.14 1.87 1.89 1.91 1.93 2.11 2.12 2.08 2.17 2.25 2.26 2.36 2.34 2.54 2.75 2.97 3.25 3.40 3.36 3.26 3.15 3.13 3.08 2.91 2.74 2.61 2.53
5.36 5.20 5.09 4.88 4.73 4.62 4.46 4.27 4.09 3.97 3.75 3.62 3.58 3.69 3.36 2.88 2.35 1.96 1.74 1.68 1.68 1.81 1.88 1.91 1.91 1.99 2.11 2.24 2.23 2.34 2.48 2.54 2.81 3.08 3.21 3.14 3.05 2.97 2.95 2.94 2.90 2.83 2.75
4.99 4.77 4.65 4.55 4.37 4.05 3.83 3.68 3.60 3.46 3.34 3.19 3.23 3.20 3.06 2.87 2.82 2.54 2.19 2.00 1.91 1.90 1.92 1.86 1.83 1.93 1.95 2.09 2.26 2.27 2.22 2.24 2.47 2.69 2.90 3.02 2.98 3.01 3.01 3.00 2.97 2.94 2.93
4.40 4.13 4.00 3.85 3.62 3.26 2.92 2.80 2.88 2.95 2.96 2.89 2.89 2.93 2.92 2.77 2.70 2.64 2.47 2.27 2.15 2.03 1.98 2.03 2.03 2.01 1.97 1.96 2.03 2.16 2.10 1.95 2.07 2.23 2.49 2.72 2.85 3.00 3.06 2.99 2.99 2.96 2.99
3.80 3.46 3.14 2.88 2.66 2.49 2.31 2.28 2.32 2.41 2.60 2.71 2.84 2.86 2.85 2.74 2.65 2.64 2.54 2.44 2.36 2.19 2.04 1.97 1.99 1.98 1.94 1.93 1.90 2.05 1.85 1.74 1.73 1.81 1.99 2.20 2.41 2.58 2.60 2.72 2.88 2.96 3.06
3.01 2.73 2.46 2.36 2.23 2.11 2.05 2.05 2.05 2.02 2.12 2.32 2.46 2.55 2.62 2.61 2.59 2.63 2.72 2.68 2.48 2.29 2.18 2.05 1.94 1.89 1.87 1.90 1.89 1.93 1.75 1.64 1.56 1.55 1.56 1.65 1.76 1.95 2.11 2.28 2.46 2.64 2.76
2.30 2.06 1.86 1.75 1.74 1.79 1.73 1.78 1.79 1.80 1.81 1.89 2.00 2.21 2.32 2.33 2.36 2.36 2.40 2.50 2.54 2.38 2.16 2.02 1.94 1.83 1.73 1.66 1.67 1.65 1.45 1.46 1.34 1.31 1.32 1.37 1.42 1.48 1.60 1.69 1.79 1.90 1.97
1.70 1.56 1.47 1.45 1.43 1.46 1.53 1.54 1.50 1.53 1.62 1.65 1.68 1.81 1.88 1.90 1.96 2.03 2.11 2.19 2.38 2.41 2.19 1.93 1.84 1.71 1.54 1.41 1.46 1.29 1.24 1.27 1.15 1.08 1.05 1.09 1.12 1.18 1.25 1.31 1.40 1.44 1.47
1.37 1.37 1.30 1.24 1.17 1.17 1.19 1.24 1.28 1.31 1.36 1.44 1.48 1.49 1.53 1.54 1.62 1.73 1.87 1.98 2.05 2.14 2.09 1.78 1.57 1.45 1.37 1.21 1.26 1.12 1.14 1.16 1.01 1.00 0.97 0.98 1.03 1.10 1.13 1.17 1.19 1.25 1.28
1.14 1.10 1.00 0.94 0.91 0.94 1.00 1.08 1.14 1.19 1.24 1.27 1.32 1.34 1.36 1.36 1.42 1.47 1.50 1.58 1.72 1.82 1.84 1.64 1.46 1.39 1.33 1.22 1.18 1.16 1.13 1.06 0.97 0.99 0.95 0.96 0.99 1.01 1.01 1.02 1.01 1.05 1.15
0.98 0.91 0.80 0.76 0.75 0.79 0.85 0.90 0.95 0.99 1.10 1.12 1.11 1.13 1.14 1.16 1.21 1.23 1.28 1.30 1.40 1.54 1.62 1.62 1.53 1.47 1.38 1.26 1.21 1.24 1.05 0.88 0.86 0.90 0.84 0.81 0.84 0.85 0.87 0.88 0.86 0.84 0.87
0.91 0.84 0.74 0.71 0.69 0.69 0.71 0.75 0.80 0.79 0.84 0.92 0.95 1.01 1.04 1.07 1.05 0.99 1.04 1.12 1.20 1.28 1.46 1.49 1.44 1.37 1.28 1.18 1.25 1.16 1.07 1.12 0.85 0.79 0.74 0.70 0.71 0.69 0.71 0.72 0.73 0.71 0.69
0.82 0.77 0.72 0.67 0.66 0.64 0.66 0.67 0.64 0.69 0.74 0.79 0.81 0.85 0.88 0.93 0.95 0.97 0.99 1.11 1.18 1.30 1.38 1.39 1.38 1.35 1.26 1.17 1.26 1.28 1.23 1.18 0.99 0.75 0.73 0.65 0.67 0.66 0.65 0.65 0.64 0.62 0.60
0.77 0.70 0.65 0.62 0.57 0.53 0.50 0.52 0.52 0.57 0.65 0.66 0.71 0.71 0.71 0.78 0.87 0.87 0.87 0.97 1.10 1.26 1.28 1.29 1.30 1.32 1.25 1.25 1.26 1.23 1.23 1.20 1.08 0.92 0.93 0.79 0.78 0.82 0.83 0.77 0.69 0.66 0.59
0.69 0.64 0.60 0.57 0.52 0.42 0.44 0.44 0.44 0.51 0.61 0.65 0.64 0.62 0.59 0.60 0.67 0.74 0.77 0.84 0.97 1.07 1.16 1.23 1.25 1.25 1.24 1.30 1.34 1.34 1.32 1.32 1.29 1.04 1.04 0.98 0.89 0.98 0.94 0.86 0.77 0.65 0.58
0.69 0.62 0.58 0.57 0.60 0.53 0.38 0.32 0.35 0.45 0.60 0.61 0.61 0.64 0.58 0.55 0.63 0.67 0.70 0.71 0.75 0.78 0.89 1.08 1.22 1.29 1.36 1.47 1.54 1.50 1.44 1.41 1.41 1.17 1.17 1.14 1.03 1.11 0.92 0.80 0.82 0.70 0.61
0.67 0.64 0.61 0.65 0.70 0.56 0.38 0.27 0.31 0.45 0.55 0.50 0.51 0.59 0.66 0.69 0.65 0.64 0.67 0.71 0.76 0.77 0.80 0.87 1.09 1.18 1.20 1.34 1.48 1.50 1.47 1.40 1.39 1.35 1.36 1.34 1.07 1.04 0.95 1.13 1.11 0.92 0.75
0.64 0.62 0.63 0.71 0.73 0.59 0.42 0.32 0.35 0.46 0.53 0.50 0.51 0.50 0.52 0.59 0.58 0.63 0.70 0.85 0.90 0.92 0.74 0.78 0.90 0.97 1.01 1.10 1.21 1.35 1.49 1.57 1.55 1.46 1.39 1.37 1.20 1.10 1.13 1.35 1.30 1.21 0.98
0.60 0.54 0.59 0.68 0.67 0.59 0.41 0.32 0.33 0.38 0.47 0.57 0.63 0.63 0.58 0.55 0.53 0.59 0.73 0.87 0.95 0.97 0.98 1.09 1.21 1.20 1.16 1.18 1.17 1.33 1.57 1.64 1.61 1.57 1.42 1.40 1.41 1.33 1.39 1.45 1.47 1.36 1.26